�������l�o���
Date,Time,MP-1(��Sv/h),MP-2(��Sv/h),MP-3(��Sv/h),MP-4(��Sv/h),MP-5(��Sv/h),MP-6(��Sv/h),MP-7(��Sv/h),MP-8(��Sv/h),����,����(m/s),���J
2016/12/07,00:00,1.099,1.849,1.220,2.089,1.438,0.572,1.041,0.965,�k�k��,2.3,��
2016/12/07,00:10,1.100,1.847,1.218,2.089,1.436,0.570,1.042,0.963,�k�k��,1.7,��
2016/12/07,00:20,1.096,1.848,1.216,2.089,1.438,0.573,1.041,0.963,�k�k��,2.5,��
2016/12/07,00:30,1.100,1.845,1.216,2.088,1.437,0.573,1.041,0.964,�k�k��,2.8,��
2016/12/07,00:40,1.099,1.849,1.219,2.090,1.437,0.571,1.042,0.965,�k�k��,4.0,��
2016/12/07,00:50,1.099,1.848,1.219,2.090,1.436,0.572,1.041,0.964,�k�k��,5.2,��
2016/12/07,01:00,1.096,1.848,1.218,2.088,1.437,0.573,1.040,0.964,�k��,5.6,��
2016/12/07,01:10,1.098,1.850,1.220,2.088,1.437,0.574,1.041,0.964,�k��,5.5,��
2016/12/07,01:20,1.100,1.850,1.217,2.091,1.437,0.572,1.042,0.965,�k��,6.6,��
2016/12/07,01:30,1.099,1.846,1.218,2.090,1.435,0.572,1.041,0.966,�k��,5.6,��
2016/12/07,01:40,1.098,1.850,1.218,2.090,1.436,0.572,1.042,0.963,�k��,5.1,��
2016/12/07,01:50,1.098,1.850,1.219,2.091,1.435,0.573,1.041,0.964,�k��,5.4,��
2016/12/07,02:00,1.098,1.847,1.221,2.088,1.441,0.572,1.041,0.964,�k�k��,4.9,��
2016/12/07,02:10,1.098,1.847,1.220,2.093,1.438,0.574,1.042,0.964,�k�k��,5.5,��
2016/12/07,02:20,1.098,1.845,1.220,2.091,1.436,0.573,1.041,0.965,�k�k��,5.3,��
2016/12/07,02:30,1.097,1.849,1.222,2.089,1.438,0.572,1.042,0.963,�k�k��,5.0,��
2016/12/07,02:40,1.098,1.848,1.220,2.090,1.438,0.571,1.042,0.965,�k�k��,4.8,��
2016/12/07,02:50,1.098,1.849,1.216,2.091,1.436,0.573,1.042,0.963,�k��,4.5,��
2016/12/07,03:00,1.096,1.849,1.219,2.089,1.437,0.572,1.042,0.966,�k��,3.7,��
2016/12/07,03:10,1.096,1.844,1.221,2.090,1.436,0.572,1.041,0.963,�k��,3.3,��
2016/12/07,03:20,1.097,1.850,1.218,2.090,1.435,0.571,1.042,0.964,�k��,3.3,��
2016/12/07,03:30,1.098,1.846,1.219,2.087,1.438,0.573,1.041,0.965,���k��,2.6,��
2016/12/07,03:40,1.098,1.847,1.219,2.092,1.438,0.570,1.041,0.964,�k��,2.3,��
2016/12/07,03:50,1.099,1.847,1.216,2.089,1.435,0.573,1.042,0.966,�k��,2.9,��
2016/12/07,04:00,1.098,1.848,1.220,2.089,1.439,0.572,1.042,0.965,�k��,2.5,��
2016/12/07,04:10,1.096,1.848,1.217,2.092,1.439,0.572,1.041,0.964,�k��,2.2,��
2016/12/07,04:20,1.098,1.847,1.219,2.089,1.437,0.571,1.042,0.963,�k�k��,3.2,��
2016/12/07,04:30,1.097,1.847,1.217,2.088,1.438,0.570,1.042,0.965,�k��,4.2,��
2016/12/07,04:40,1.096,1.846,1.218,2.090,1.435,0.573,1.042,0.964,�k�k��,5.3,��
2016/12/07,04:50,1.096,1.846,1.217,2.089,1.437,0.573,1.041,0.965,�k�k��,5.4,��
2016/12/07,05:00,1.098,1.849,1.218,2.089,1.436,0.572,1.040,0.964,�k,5.3,��
2016/12/07,05:10,1.095,1.848,1.219,2.088,1.435,0.571,1.041,0.965,�k�k��,6.5,��
2016/12/07,05:20,1.098,1.848,1.220,2.089,1.438,0.571,1.042,0.965,�k,4.1,��
2016/12/07,05:30,1.096,1.848,1.216,2.091,1.436,0.571,1.041,0.964,�k,5.1,��
2016/12/07,05:40,1.096,1.849,1.218,2.090,1.435,0.572,1.041,0.966,�k�k��,5.9,��
2016/12/07,05:50,1.096,1.847,1.215,2.088,1.435,0.571,1.042,0.963,�k,5.1,��
2016/12/07,06:00,1.094,1.844,1.217,2.090,1.435,0.571,1.041,0.963,�k�k��,5.4,��
2016/12/07,06:10,1.096,1.848,1.218,2.090,1.438,0.573,1.042,0.965,�k�k��,4.8,��
2016/12/07,06:20,1.096,1.846,1.214,2.087,1.437,0.571,1.042,0.965,�k�k��,4.5,��
2016/12/07,06:30,1.098,1.846,1.216,2.088,1.435,0.572,1.039,0.966,�k�k��,4.1,��
2016/12/07,06:40,1.097,1.842,1.218,2.088,1.436,0.571,1.039,0.962,�k�k��,4.8,��
2016/12/07,06:50,1.097,1.845,1.214,2.087,1.435,0.571,1.041,0.964,�k�k��,4.8,��
2016/12/07,07:00,1.095,1.845,1.213,2.087,1.436,0.570,1.041,0.964,�k�k��,5.6,��
2016/12/07,07:10,1.095,1.846,1.215,2.087,1.436,0.571,1.039,0.963,�k�k��,4.9,��
2016/12/07,07:20,1.096,1.848,1.213,2.087,1.438,0.571,1.042,0.964,�k�k��,5.2,��
2016/12/07,07:30,1.096,1.846,1.208,2.087,1.434,0.572,1.041,0.964,�k�k��,5.5,��
2016/12/07,07:40,1.096,1.847,1.212,2.090,1.438,0.569,1.040,0.964,�k�k��,4.8,��
2016/12/07,07:50,1.096,1.844,1.216,2.089,1.435,0.572,1.040,0.966,�k,3.6,��
2016/12/07,08:00,1.096,1.847,1.214,2.089,1.433,0.571,1.041,0.965,�k,3.7,��
2016/12/07,08:10,1.098,1.848,1.209,2.092,1.435,0.572,1.040,0.965,�k,4.2,��
2016/12/07,08:20,1.097,1.846,1.210,2.090,1.434,0.570,1.041,0.965,�k�k��,5.2,��
2016/12/07,08:30,1.098,1.848,1.216,2.091,1.435,0.572,1.041,0.964,�k�k��,5.3,��
2016/12/07,08:40,1.098,1.845,1.215,2.089,1.436,0.572,1.041,0.966,�k�k��,6.0,��
2016/12/07,08:50,1.101,1.848,1.216,2.092,1.437,0.570,1.042,0.964,�k�k��,5.1,��
2016/12/07,09:00,1.102,1.845,1.214,2.089,1.438,0.571,1.042,0.965,�k,3.9,��
2016/12/07,09:10,1.102,1.849,1.214,2.089,1.435,0.574,1.042,0.966,�k,4.1,��
2016/12/07,09:20,1.099,1.851,1.214,2.094,1.434,0.573,1.044,0.965,�k,5.8,��
2016/12/07,09:30,1.102,1.850,1.214,2.094,1.433,0.572,1.044,0.964,�k�k��,5.0,��
2016/12/07,09:40,1.101,1.853,1.215,2.094,1.435,0.573,1.041,0.965,�k�k��,4.8,��
2016/12/07,09:50,1.102,1.850,1.216,2.095,1.437,0.573,1.040,0.966,�k�k��,4.6,��
2016/12/07,10:00,1.103,1.850,1.217,2.093,1.438,0.574,1.041,0.966,�k�k��,3.7,��
2016/12/07,10:10,1.102,1.849,1.217,2.093,1.439,0.573,1.042,0.967,�k�k��,3.6,��
2016/12/07,10:20,1.104,1.851,1.216,2.093,1.438,0.575,1.043,0.966,�k��,3.3,��
2016/12/07,10:30,1.103,1.853,1.216,2.096,1.442,0.574,1.040,0.966,�k��,3.8,��
2016/12/07,10:40,1.105,1.854,1.218,2.097,1.441,0.573,1.042,0.966,���쐼,1.9,��
2016/12/07,10:50,1.103,1.853,1.218,2.093,1.440,0.572,1.042,0.967,���쐼,1.5,��
2016/12/07,11:00,1.104,1.849,1.218,2.095,1.440,0.573,1.043,0.965,�쐼,2.3,��
2016/12/07,11:10,1.104,1.849,1.218,2.096,1.440,0.574,1.042,0.965,�쐼,2.0,��
2016/12/07,11:20,1.105,1.854,1.219,2.100,1.442,0.574,1.043,0.966,�쐼,2.6,��
2016/12/07,11:30,1.106,1.852,1.219,2.098,1.443,0.575,1.044,0.970,���쐼,4.7,��
2016/12/07,11:40,1.106,1.853,1.219,2.098,1.444,0.574,1.045,0.969,��,6.5,��
2016/12/07,11:50,1.110,1.852,1.221,2.098,1.444,0.575,1.043,0.967,��,5.9,��
2016/12/07,12:00,1.107,1.852,1.218,2.097,1.442,0.574,1.047,0.968,��,8.3,��
2016/12/07,12:10,1.108,1.846,1.219,2.098,1.444,0.575,1.044,0.970,��,6.4,��
2016/12/07,12:20,1.107,1.850,1.220,2.097,1.443,0.576,1.042,0.968,��,7.0,��
2016/12/07,12:30,1.107,1.852,1.221,2.095,1.441,0.575,1.044,0.968,��,6.4,��
2016/12/07,12:40,1.110,1.852,1.221,2.099,1.442,0.576,1.045,0.968,��,5.2,��
2016/12/07,12:50,1.107,1.849,1.221,2.100,1.446,0.576,1.043,0.967,��,6.6,��
2016/12/07,13:00,1.108,1.848,1.223,2.100,1.441,0.576,1.042,0.968,��,4.7,��
2016/12/07,13:10,1.109,1.853,1.224,2.100,1.443,0.577,1.042,0.969,��,4.4,��
2016/12/07,13:20,1.109,1.856,1.223,2.100,1.443,0.576,1.044,0.968,��,3.0,��
2016/12/07,13:30,1.107,1.853,1.225,2.104,1.445,0.578,1.043,0.969,�k��,2.3,��
2016/12/07,13:40,1.109,1.853,1.223,2.104,1.445,0.576,1.044,0.970,�k�k��,2.5,��
2016/12/07,13:50,1.109,1.850,1.224,2.097,1.445,0.577,1.043,0.970,�k��,3.8,��
2016/12/07,14:00,1.110,1.852,1.225,2.101,1.445,0.576,1.043,0.969,�k�k��,3.8,��
2016/12/07,14:10,1.106,1.854,1.224,2.101,1.447,0.576,1.044,0.968,�k�k��,4.5,��
2016/12/07,14:20,1.109,1.851,1.224,2.102,1.440,0.577,1.045,0.970,�k��,4.3,��
2016/12/07,14:30,1.109,1.852,1.226,2.102,1.431,0.580,1.043,0.969,�k��,3.9,��
2016/12/07,14:40,1.109,1.850,1.225,2.101,1.435,0.575,1.045,0.968,�k�k��,4.5,��
2016/12/07,14:50,1.126,1.853,1.226,2.102,1.450,0.576,1.044,0.971,�k��,4.3,��
2016/12/07,15:00,1.110,1.856,1.225,2.101,1.449,0.578,1.044,0.970,�k��,4.6,��
2016/12/07,15:10,1.110,1.856,1.226,2.099,1.446,0.578,1.044,0.968,�k��,4.0,��
2016/12/07,15:20,1.110,1.855,1.226,2.101,1.446,0.577,1.044,0.971,�k�k��,4.4,��
2016/12/07,15:30,1.110,1.854,1.224,2.103,1.443,0.576,1.045,0.969,�k��,4.5,��
2016/12/07,15:40,1.109,1.857,1.224,2.099,1.442,0.576,1.046,0.971,�k�k��,4.5,��
2016/12/07,15:50,1.109,1.856,1.225,2.102,1.446,0.577,1.046,0.968,�k�k��,6.0,��
2016/12/07,16:00,1.107,1.856,1.225,2.100,1.444,0.577,1.046,0.969,�k,5.3,��
2016/12/07,16:10,1.108,1.857,1.225,2.100,1.442,0.578,1.048,0.968,�k,5.2,��
2016/12/07,16:20,1.106,1.857,1.223,2.099,1.444,0.578,1.045,0.968,�k,5.2,��
2016/12/07,16:30,1.105,1.858,1.225,2.098,1.444,0.577,1.046,0.968,�k,5.7,��
2016/12/07,16:40,1.104,1.859,1.223,2.098,1.437,0.574,1.044,0.967,�k,5.7,��
2016/12/07,16:50,1.105,1.854,1.225,2.099,1.446,0.576,1.046,0.967,�k,4.8,��
2016/12/07,17:00,1.106,1.850,1.225,2.097,1.445,0.577,1.043,0.969,�k,3.8,��
2016/12/07,17:10,1.106,1.856,1.222,2.098,1.446,0.575,1.043,0.967,�k,3.2,��
2016/12/07,17:20,1.105,1.857,1.223,2.099,1.446,0.576,1.044,0.968,�k,3.7,��
2016/12/07,17:30,1.104,1.856,1.220,2.096,1.447,0.576,1.044,0.968,�k�k��,3.4,��
2016/12/07,17:40,1.105,1.852,1.223,2.097,1.447,0.574,1.042,0.967,�k,2.6,��
2016/12/07,17:50,1.104,1.855,1.223,2.093,1.446,0.575,1.045,0.967,�k�k��,2.8,��
2016/12/07,18:00,1.104,1.856,1.220,2.100,1.444,0.573,1.043,0.966,�k�k��,2.9,��
2016/12/07,18:10,1.106,1.854,1.218,2.097,1.446,0.573,1.043,0.967,�k�k��,2.6,��
2016/12/07,18:20,1.103,1.855,1.220,2.096,1.444,0.575,1.044,0.967,�k��,2.6,��
2016/12/07,18:30,1.105,1.855,1.222,2.094,1.445,0.574,1.045,0.967,�k��,2.3,��
2016/12/07,18:40,1.104,1.854,1.222,2.096,1.444,0.575,1.043,0.967,�k��,2.6,��
2016/12/07,18:50,1.107,1.855,1.223,2.097,1.445,0.574,1.043,0.966,�k��,3.2,��
2016/12/07,19:00,1.103,1.857,1.222,2.100,1.447,0.573,1.042,0.965,�k��,3.4,��
2016/12/07,19:10,1.103,1.855,1.220,2.094,1.444,0.574,1.044,0.967,�k��,3.3,��
2016/12/07,19:20,1.105,1.854,1.219,2.097,1.443,0.575,1.044,0.967,�k��,3.9,��
2016/12/07,19:30,1.104,1.852,1.222,2.096,1.440,0.573,1.043,0.964,�k��,3.7,��
2016/12/07,19:40,1.104,1.855,1.220,2.096,1.445,0.574,1.044,0.966,�k��,3.5,��
2016/12/07,19:50,1.104,1.853,1.222,2.096,1.447,0.575,1.044,0.965,�k��,3.3,��
2016/12/07,20:00,1.103,1.851,1.221,2.097,1.445,0.574,1.044,0.967,���k��,2.3,��
2016/12/07,20:10,1.106,1.853,1.220,2.096,1.443,0.575,1.046,0.968,���k��,3.0,��
2016/12/07,20:20,1.106,1.852,1.221,2.100,1.444,0.575,1.045,0.966,���k��,3.0,��
2016/12/07,20:30,1.108,1.854,1.220,2.098,1.445,0.574,1.043,0.966,���k��,2.6,��
2016/12/07,20:40,1.104,1.856,1.223,2.096,1.443,0.574,1.043,0.968,���k��,3.6,��
2016/12/07,20:50,1.105,1.855,1.224,2.100,1.447,0.576,1.045,0.969,�k��,2.5,��
2016/12/07,21:00,1.106,1.855,1.224,2.095,1.444,0.576,1.043,0.967,���k��,3.3,��
2016/12/07,21:10,1.105,1.855,1.222,2.100,1.448,0.574,1.047,0.966,���k��,2.6,��
2016/12/07,21:20,1.105,1.855,1.224,2.097,1.448,0.575,1.045,0.966,���k��,3.1,��
2016/12/07,21:30,1.106,1.856,1.221,2.097,1.447,0.575,1.044,0.966,���k��,3.7,��
2016/12/07,21:40,1.105,1.855,1.223,2.096,1.444,0.577,1.045,0.967,�k��,4.2,��
2016/12/07,21:50,1.109,1.855,1.222,2.098,1.448,0.575,1.044,0.968,�k��,5.9,��
2016/12/07,22:00,1.107,1.855,1.223,2.097,1.447,0.575,1.045,0.965,�k��,6.4,��
2016/12/07,22:10,1.107,1.855,1.225,2.098,1.448,0.575,1.046,0.969,�k��,6.4,��
2016/12/07,22:20,1.104,1.857,1.222,2.098,1.444,0.577,1.047,0.968,�k��,5.1,��
2016/12/07,22:30,1.105,1.856,1.225,2.100,1.446,0.575,1.045,0.969,�k�k��,5.3,��
2016/12/07,22:40,1.109,1.853,1.224,2.100,1.447,0.576,1.048,0.968,�k��,7.3,��
2016/12/07,22:50,1.106,1.855,1.225,2.100,1.446,0.576,1.046,0.967,�k�k��,7.2,��
2016/12/07,23:00,1.108,1.859,1.225,2.100,1.447,0.576,1.047,0.967,�k�k��,6.2,��
2016/12/07,23:10,1.104,1.860,1.228,2.102,1.444,0.576,1.048,0.969,�k�k��,6.7,��
2016/12/07,23:20,1.106,1.857,1.224,2.100,1.444,0.575,1.048,0.968,�k�k��,6.0,��
2016/12/07,23:30,1.105,1.855,1.225,2.103,1.450,0.579,1.044,0.967,�k�k��,5.4,��
2016/12/07,23:40,1.108,1.855,1.224,2.101,1.447,0.575,1.047,0.970,�k�k��,5.5,��
2016/12/07,23:50,1.110,1.854,1.228,2.101,1.447,0.574,1.045,0.969,�k�k��,6.0,��
